Location: Castifao
(42.5040°N, 9.1124°E)
Time: 15:05:14
(UTC+00:00)

ISS - Pass Details

Date: 23 January 2020
Orbit: 415 x 423 km, 51.6° (Epoch: 25 February)

Event Time Altitude Azimuth Distance (km) Brightness Sun altitude
Rises 18:05:37 0° 252° (WSW) 2,372 1.7 -18.4°
Reaches altitude 10° 18:07:46 10° 259° (W) 1,509 0.3 -18.8°
Maximum altitude 18:11:02 43° 333° (NNW) 602 -2.9 -19.4°
Enters shadow 18:11:34 40° 1° (N) 643 -3.0 -19.5°
